Location: Góry Miechowskie
(50.3599°N, 20.1803°E)
Time: 22:29:11
(UTC+00:00)

Explorer 11/Cluster Stage 4 - All Passes

Search period start: 11 September 2024 00:00
Search period end: 21 September 2024 00:00
Orbit: 464 x 1209 km, 28.8° (Epoch: 10 September)

Date Brightness Start Highest point End Pass type
(mag) Time Alt. Az. Time Alt. Az. Time Alt. Az.
11 Sep - 08:35:29 10° SSW 08:39:05 14° S 08:42:39 10° SSE daylight
11 Sep - 10:24:09 10° SSW 10:26:02 11° SSW 10:27:53 10° S daylight
12 Sep - 08:16:08 10° SSW 08:19:48 14° S 08:23:28 10° SSE daylight
12 Sep - 10:04:50 10° SSW 10:06:45 11° SSW 10:08:39 10° S daylight
13 Sep - 06:13:01 10° SSE 06:13:34 10° SSE 06:14:08 10° SSE daylight
13 Sep - 07:56:52 10° SSW 08:00:30 14° S 08:04:10 10° SSE daylight
13 Sep - 09:45:40 10° SSW 09:47:28 11° SSW 09:49:15 10° S daylight
14 Sep - 05:53:50 10° SSE 05:54:17 10° SSE 05:54:44 10° SSE daylight
14 Sep - 07:37:39 10° SSW 07:41:11 14° S 07:44:47 10° SSE daylight
14 Sep - 09:26:39 10° SSW 09:28:09 11° SSW 09:29:39 10° S daylight
15 Sep - 07:18:31 10° SSW 07:21:51 13° S 07:25:19 10° SSE daylight
15 Sep - 09:08:00 10° SSW 09:08:49 10° SSW 09:09:39 10° S daylight
16 Sep - 06:59:26 10° SSW 07:02:33 13° S 07:05:45 10° SSE daylight
17 Sep - 06:40:29 10° SSW 06:43:14 12° S 06:46:03 10° SSE daylight
18 Sep - 06:21:39 10° SSW 06:23:55 12° S 06:26:15 10° SSE daylight
19 Sep - 06:03:03 10° SSW 06:04:36 11° S 06:06:13 10° SSE daylight
